Погода в Кяхте

Погода в Кяхте : погода сейчас, прогноз погоды и архив. Всё, что Вы хотите узнать о погоде в Кяхте!

Поиск расширенной информации на нашем сайте:

Другие новости

Новости СМИ2

Главная страница сайта

Новости сайта

03.07.2017

Напоминаем, что на нашем специализированном сайте Метеоцентр.Азия вы можете получить высокодетализированные автоматические прогнозы погоды по пунктам России, СНГ и мира в авиационном формате (включающие направление и скорость ветра, видимость, явления погоды, количество и форму облачности, нижнюю и верхнюю границу облачности).

Рекомендуем: Популярные фирмы - стеклобанка. В паллетах

Погода в Кяхте - сегодня

Время (UTC), дата Ветер
(°,м/с) 
Видим.   Явления Облачность Т
(°С)
Тd
(°С)
f(%) Тe
(°С)
Pmin
(гПа)
dP
(гПа)
Po
(мм)
O2
(г/м3)
Тmin Tmax R s Состояние
почвы
18 19.04.18 тихо ()   н/о    4/3 2000 м средняя, верхняя 
[Ac As|Cs]
-3.4 -4.8 90 -3  1022.6  0.7  694  284           
21 19.04.18 310 (СЗ) н/о    6/4 2000 м средняя, верхняя 
[Ac As|Cs]
-4.4 -5.6 91 -4  1023.4  0.3  694  285           
00 20.04.18 120 (ЮВ) 20000 м    6/3 2000 м средняя, верхняя 
[Ac lent|Cs]
+1 -2.9 75 +2  1023.2  1.7  696  279  -4.4         
03 20.04.18 180 (Ю) 20000 м    6/0 верхняя 
[Ci fib]
+6.1 -2.8 53 +7  1021.1  -0.3  695  274           
06 20.04.18 180 (Ю) 20000 м    10/0 верхняя 
[Cs]
+9.6 -4.6 36 +11  1018.5  -1.6  694  271           
09 20.04.18 080 (В) 20000 м    10/3 2000 м средняя, верхняя 
[Ac As|Cs]
+10.2 -7 29 +11  1016.6  -1.2  693  270           
15 20.04.18 360 (С) н/о    4/0 верхняя 
[Ci fib]
+0.9 -8 51 +2  1021.3  0.7  694  279           
18 20.04.18 360 (С) н/о    3/0 верхняя 
[Ci fib]
+0 -8.5 53 +1  1021.5  -0.1  694  280           
21 20.04.18 360 (С) н/о    3/0 верхняя 
[Ci fib]
-0.3 -8.5 54 1022.1  0.5  694  281           
00 21.04.18 180 (Ю) 20000 м    10/1 1000 м средняя, верхняя 
[Cu med, cong|Ac trans|Cs]
+4.3 -3.9 55 +5  1021.9  1.2  695  276  -10.1         
03 21.04.18 180 (Ю) 20000 м    8/4 1000 м средняя, верхняя 
[Cu hum|Ac trans|Cs]
+10.9 +1.4 52 +11  1020.7  696  269           
06 21.04.18 220 (ЮЗ) 20000 м    8/6 600 м кучево-дожд., средняя, верхняя 
[Cb cap|Ac As|Cs]
+13.8 +1.9 44 +14  1019.3  -0.4  696  267           
09 21.04.18 140 (ЮВ) 20000 м    6/4 1000 м верхняя 
[Sc diur, vesp|Cs]
+13.8 +1.3 43 +14  1019.3  696  267           
15 21.04.18 тихо ()   н/о    3/0 верхняя 
[Cs]
+4.5 -1.9 63 +5  1025.1  1.7  698  277           
18 21.04.18 360 (С) н/о    ясно 
+5.7 -1.6 59 +7  1025.4  0.6  698  276           
21 21.04.18 360 (С) н/о    ясно 
+1.5 -1.3 82 +2  1027  0.2  698  280           
03 22.04.18 180 (Ю) 20000 м    ясно 
+13.5 -2.4 33 +14  1024.6  0.2  699  269           
06 22.04.18 180 (Ю) 20000 м    8/3 1000 м средняя, верхняя 
[As op|Ci fib]
+16.5 -3.6 25 +17  1022.2  -1.3  698  266           
09 22.04.18 180 (Ю) 20000 м    10/1 1000 м верхняя 
[Cu med, cong|Ci fib]
+16.6 -4.3 24 +17  1020.2  -1.8  697  265           
15 22.04.18 340 (С) н/о    н/о 
+8.3 -7.5 32 +9  1024.2  0.8  698  274           
18 22.04.18 010 (С) н/о    3/0 верхняя 
[Ci fib]
+5.8 -5.1 45 +7  1024.4  698  276           
21 22.04.18 180 (Ю) н/о    1/0 верхняя 
[Ci fib]
+7.3 -3.2 47 +8  1023.4  -0.5  697  274           
00 23.04.18 180 (Ю) 20000 м    1/0 верхняя 
[Ci fib]
+10.1 -1.4 45 +10  1023.1  0.8  698  271  +5.8         
03 23.04.18 210 (ЮЗ) 5-10{12}  20000 м    ясно 
+15.3 -0.7 33 +15  1021  -0.4  697  266           
09 23.04.18 180 (Ю) 4{11}  20000 м    3/0 верхняя 
[Ci fib]
+21.4 +3.2 30 +21  1014.6  -1.9  694  259           
Время (UTC), дата Ветер
(°,м/с) 
Видим.   Явления Облачность Т
(°С)
Тd
(°С)
f(%) Тe
(°С)
Pmin
(гПа)
dP
(гПа)
Po
(мм)
O2
(г/м3)
Тmin Tmax R s Состояние
почвы

Для получения пояснительной информации подведите курсор к названию столбца.

ПОГОДА в Кяхте - архив

Всё, что Вы хотите узнать о погоде в Кяхте - удобно и подробно!

Выберите нужную дату (начиная с 1 января 2015* года) и нажмите кнопку "Найти".
Будут отображены архивные сводки погоды по пункту Кяхта, начиная с указанной даты.


Отображать данные в формате CSV (для использования в таблицах Excel)


Внимание! Наш архив погоды предназначен исключительно для личного некоммерческого использования в познавательных целях. Если Вам необходимы официальные справки о состоянии погоды (для производственных, юридических, коммерческих и т.п. целей), обращайтесь в органы Росгидромета.

*Примечание: данная дата относится к архиву по метеостанциям СССР (Россия, СНГ, Балтия).
Архив по метеостанциям Зарубежной Европы и Азии (кроме Китая) хранится 10 дней, по другим регионам земного шара (Китай, Африка, Америка, Австралия, Океания) - 1 день.

Кяхта - район местоположения метеостанции


Название, широта, долгота, высота метеостанции:
Кяхта 50.4°ш. 106.4°д. 797 м над ур. моря [Российская Федерация]

Дополнительная информация

В oтличие oт бoльшинства пoгoдных сайтoв мы публикуем пoдрoбную метеoинфoрмацию в детальнoм прoфессиoнальнoм фoрмате.

Характеристики температуры и влажнoсти вoздуха измеряются на высoте 2 м в тени вдали oт зданий и деревьев.
Скoрoсть ветра измеряется на высoте 10 м (на урoвне рoста челoвека скoрoсть ветра ниже в 1.5-2 раза). Если метеoстанция нахoдится в гoрoде или в лесу, тo скoрoсть ветра занижена на 2-4 м/с пo сравнению с oткрытым местoм. Скoрoсть ветра над акватoриями крупных рек и oзёр, а также на вершинах хoлмoв на 2-5 м/с выше, чем в oбычных услoвиях.
Атмoсфернoе давление в разных тoчках местнoсти мoжет значительнo oтличаться oт давления на метеoстанции, в зависимoсти oт услoвий рельефа (при пoдъёме на 10 м давление пoнижается примернo на 1 мм рт.ст.).